Temp
-5 -5 -5 -5 -5 -6 -6 -6 -6 -6 -6 -6 -6 -6 -6 -6 -6 -6 -6 -6 -6 -6 -6 -6 -6 -6 -6 -6 -6 -6 -6 -6 -6 -6 -6 -6 -6 -6 -6 -6 -6 -7
-5 -5 -5 -5 -5 -5 -6 -6 -6 -6 -6 -6 -6 -6 -6 -6 -6 -6 -6 -6 -6 -6 -6 -6 -6 -6 -6 -6 -6 -6 -6 -6 -6 -6 -6 -6 -6 -6 -6 -6 -6 -7
-5 -5 -5 -5 -5 -5 -5 -5 -5 -6 -6 -6 -6 -6 -6 -6 -6 -6 -6 -6 -6 -6 -6 -6 -6 -6 -6 -6 -6 -6 -6 -6 -6 -6 -6 -6 -6 -6 -6 -6 -6 -7
-5 -5 -5 -5 -5 -6 -5 -5 -5 -5 -5 -6 -6 -6 -6 -6 -6 -6 -6 -6 -6 -6 -6 -6 -6 -6 -6 -6 -6 -6 -6 -6 -6 -6 -6 -6 -6 -6 -7 -7 -7 -7
-5 -5 -5 -5 -5 -5 -6 -5 -5 -5 -5 -5 -6 -6 -6 -6 -6 -6 -6 -6 -6 -6 -6 -6 -6 -6 -6 -6 -6 -6 -6 -6 -6 -6 -6 -6 -6 -6 -7 -7 -7 -7
-6 -6 -6 -5 -5 -5 -6 -6 -6 -6 -5 -6 -6 -6 -6 -6 -6 -6 -6 -6 -6 -6 -6 -6 -6 -6 -6 -6 -6 -6 -6 -6 -6 -6 -6 -6 -6 -6 -6 -7 -7 -7
-6 -6 -6 -6 -5 -5 -6 -6 -6 -6 -6 -6 -6 -6 -6 -5 -5 -6 -6 -6 -6 -6 -6 -6 -6 -6 -6 -6 -6 -6 -6 -6 -6 -6 -6 -6 -6 -6 -6 -6 -6 -7
-6 -6 -6 -6 -6 -6 -6 -6 -6 -6 -6 -6 -6 -6 -6 -5 -5 -5 -5 -5 -5 -6 -6 -6 -6 -6 -6 -6 -6 -6 -6 -6 -6 -6 -6 -6 -6 -6 -6 -6 -6 -6
-6 -6 -6 -6 -6 -6 -6 -6 -6 -6 -5 -6 -6 -6 -6 -6 -5 -5 -5 -5 -5 -5 -5 -5 -6 -6 -6 -6 -6 -6 -6 -6 -6 -6 -6 -6 -6 -6 -6 -6 -6 -6
-6 -6 -6 -6 -6 -6 -6 -6 -6 -6 -6 -6 -6 -6 -5 -6 -6 -5 -5 -5 -5 -6 -6 -6 -6 -6 -6 -6 -6 -6 -6 -6 -6 -6 -6 -6 -6 -6 -6 -6 -6 -6
-6 -6 -6 -6 -6 -6 -6 -6 -6 -6 -6 -6 -6 -6 -5 -5 -6 -5 -5 -6 -6 -6 -6 -6 -6 -6 -6 -6 -6 -6 -6 -6 -6 -6 -6 -6 -6 -6 -6 -6 -6 -6
-6 -6 -6 -6 -6 -6 -6 -6 -6 -6 -6 -6 -6 -6 -5 -6 -6 -5 -5 -5 -6 -6 -6 -6 -6 -6 -6 -6 -6 -6 -6 -6 -6 -6 -6 -6 -6 -6 -6 -6 -6 -6
-6 -6 -6 -6 -6 -6 -6 -6 -6 -6 -6 -6 -6 -6 -5 -5 -6 -5 -5 -5 -5 -6 -6 -6 -6 -6 -6 -6 -6 -6 -6 -6 -6 -6 -6 -6 -6 -6 -6 -6 -6 -6
-6 -6 -6 -6 -6 -6 -6 -6 -6 -6 -6 -6 -6 -6 -6 -6 -6 -5 -5 -5 -5 -6 -6 -6 -6 -6 -6 -6 -6 -6 -6 -6 -6 -6 -6 -6 -6 -6 -6 -6 -6 -6
-6 -6 -6 -6 -6 -6 -6 -6 -6 -6 -6 -6 -6 -6 -6 -6 -6 -6 -6 -6 -6 -6 -6 -6 -5 -6 -6 -6 -6 -6 -6 -6 -6 -6 -6 -6 -6 -6 -6 -6 -6 -6
-6 -6 -6 -6 -5 -5 -5 -6 -6 -6 -6 -6 -6 -6 -6 -6 -6 -6 -6 -6 -6 -6 -6 -6 -6 -6 -6 -6 -6 -6 -6 -6 -6 -6 -6 -6 -6 -6 -6 -6 -6 -6
-6 -6 -6 -6 -6 -6 -5 -5 -5 -6 -6 -6 -6 -6 -6 -6 -6 -6 -6 -6 -6 -6 -6 -6 -6 -6 -6 -6 -6 -6 -6 -6 -6 -6 -6 -6 -6 -6 -6 -6 -6 -6
-6 -6 -6 -6 -6 -6 -6 -5 -5 -5 -6 -6 -6 -6 -6 -6 -6 -6 -6 -6 -6 -6 -6 -6 -6 -6 -6 -6 -6 -6 -6 -6 -6 -6 -6 -6 -6 -6 -6 -6 -6 -6
-6 -6 -6 -6 -6 -6 -6 -6 -6 -6 -6 -6 -6 -6 -6 -6 -6 -6 -6 -6 -6 -6 -6 -6 -6 -6 -6 -6 -6 -6 -6 -6 -6 -6 -6 -6 -6 -6 -6 -6 -6 -6
-6 -6 -6 -6 -6 -6 -6 -6 -6 -6 -6 -6 -6 -6 -6 -6 -6 -6 -6 -6 -6 -6 -6 -6 -6 -6 -6 -6 -6 -6 -6 -6 -6 -6 -6 -6 -6 -6 -6 -6 -6 -6
-6 -6 -6 -6 -6 -6 -6 -6 -6 -6 -7 -6 -6 -6 -6 -6 -5 -5 -5 -5 -6 -6 -5 -6 -6 -6 -6 -6 -6 -6 -6 -6 -6 -6 -6 -6 -6 -6 -6 -6 -6 -6
-6 -6 -6 -6 -6 -6 -6 -6 -6 -7 -7 -7 -7 -6 -6 -6 -6 -5 -5 -5 -5 -5 -5 -6 -6 -6 -6 -6 -6 -6 -6 -6 -6 -6 -6 -6 -6 -6 -6 -7 -6 -6
-7 -7 -7 -7 -7 -7 -7 -7 -7 -7 -7 -7 -7 -6 -6 -6 -6 -6 -6 -6 -6 -6 -6 -6 -6 -6 -6 -6 -6 -6 -6 -6 -6 -6 -6 -6 -6 -6 -6 -7 -7 -6
-7 -7 -7 -7 -7 -7 -7 -7 -7 -7 -7 -7 -7 -6 -6 -6 -6 -6 -7 -7 -7 -6 -6 -7 -6 -6 -6 -6 -6 -6 -6 -6 -6 -7 -7 -7 -7 -6 -6 -6 -7 -7
-7 -7 -7 -7 -7 -7 -7 -7 -7 -7 -7 -7 -7 -7 -6 -6 -6 -6 -7 -7 -7 -7 -7 -7 -7 -7 -6 -6 -6 -6 -6 -6 -6 -7 -7 -7 -7 -7 -6 -6 -7 -7
-7 -7 -7 -7 -7 -7 -7 -7 -7 -7 -7 -7 -7 -7 -6 -6 -6 -6 -7 -7 -7 -7 -7 -7 -7 -7 -7 -7 -7 -6 -6 -6 -7 -7 -7 -7 -6 -7 -7 -7 -7 -7
Height
5947 5947 5948 5949 5950 5951 5952 5953 5953 5954 5954 5955 5956 5957 5958 5959 5960 5960 5961 5962 5963 5964 5964 5965 5966 5966 5967 5968 5969 5970 5970 5971 5972 5972 5972 5973 5973 5973 5974 5974 5974 5974
5947 5947 5948 5949 5950 5951 5952 5953 5954 5954 5955 5955 5956 5957 5958 5959 5960 5960 5961 5962 5963 5964 5965 5965 5966 5967 5968 5968 5969 5970 5970 5971 5972 5972 5972 5973 5973 5973 5973 5974 5974 5974
5947 5948 5948 5949 5950 5951 5952 5953 5953 5954 5955 5955 5956 5957 5958 5959 5959 5960 5961 5962 5963 5964 5964 5965 5966 5967 5968 5968 5969 5970 5970 5971 5971 5972 5972 5972 5973 5973 5973 5973 5973 5974
5947 5948 5949 5949 5950 5951 5952 5952 5953 5954 5955 5955 5956 5957 5957 5958 5959 5960 5961 5961 5962 5963 5964 5965 5966 5967 5967 5968 5969 5969 5970 5970 5971 5971 5971 5972 5972 5972 5972 5972 5973 5973
5947 5948 5949 5949 5950 5951 5952 5952 5953 5953 5954 5955 5956 5956 5957 5958 5958 5959 5960 5961 5962 5963 5964 5964 5965 5966 5967 5968 5968 5969 5969 5970 5970 5971 5971 5971 5971 5972 5972 5972 5972 5972
5946 5947 5948 5949 5950 5951 5952 5952 5953 5953 5954 5955 5955 5956 5957 5957 5958 5959 5960 5960 5961 5962 5963 5964 5965 5965 5966 5967 5967 5968 5969 5969 5970 5970 5970 5971 5971 5971 5971 5971 5971 5971
5945 5946 5948 5949 5950 5950 5951 5952 5952 5953 5953 5954 5955 5955 5956 5957 5957 5958 5959 5960 5961 5961 5962 5963 5963 5964 5965 5966 5966 5967 5968 5968 5969 5969 5969 5970 5970 5970 5970 5971 5971 5971
5944 5945 5946 5948 5949 5950 5951 5951 5952 5953 5953 5954 5954 5955 5955 5956 5957 5957 5958 5959 5959 5960 5961 5962 5962 5963 5964 5964 5965 5966 5966 5967 5967 5968 5968 5968 5969 5969 5969 5969 5970 5970
5943 5944 5945 5946 5947 5949 5950 5951 5951 5952 5952 5953 5954 5954 5955 5955 5956 5957 5957 5958 5958 5959 5960 5960 5961 5962 5962 5963 5963 5964 5965 5965 5966 5966 5966 5967 5967 5967 5968 5968 5968 5968
5941 5942 5943 5945 5946 5947 5949 5950 5951 5951 5952 5952 5953 5953 5954 5955 5955 5956 5956 5956 5957 5958 5958 5959 5960 5960 5961 5961 5962 5963 5964 5964 5964 5965 5965 5965 5966 5966 5966 5966 5967 5967
5940 5941 5942 5943 5944 5946 5947 5948 5950 5951 5951 5951 5952 5952 5953 5954 5954 5954 5955 5955 5956 5956 5957 5957 5958 5959 5959 5960 5961 5962 5962 5962 5963 5963 5964 5964 5964 5965 5965 5965 5965 5966
5938 5939 5940 5941 5942 5944 5945 5946 5948 5949 5949 5950 5950 5951 5952 5952 5953 5953 5954 5954 5955 5955 5956 5956 5957 5958 5958 5959 5960 5961 5961 5961 5961 5962 5962 5963 5963 5963 5964 5964 5964 5964
5936 5937 5938 5939 5940 5941 5943 5944 5945 5947 5947 5948 5948 5949 5950 5950 5951 5952 5952 5953 5954 5955 5955 5956 5956 5957 5958 5958 5959 5959 5960 5960 5960 5961 5961 5961 5961 5962 5962 5962 5962 5963
5934 5935 5936 5937 5938 5939 5941 5942 5943 5944 5945 5945 5946 5947 5948 5948 5949 5950 5951 5952 5953 5954 5955 5955 5955 5956 5956 5957 5957 5958 5958 5958 5959 5959 5959 5960 5960 5960 5960 5960 5961 5961
5931 5933 5934 5934 5935 5937 5938 5939 5940 5941 5942 5942 5943 5944 5945 5946 5947 5948 5950 5951 5952 5952 5953 5953 5954 5954 5954 5954 5955 5956 5956 5956 5957 5957 5958 5958 5959 5959 5959 5959 5959 5959
5929 5930 5931 5932 5933 5934 5935 5936 5937 5938 5939 5940 5941 5942 5943 5944 5945 5946 5947 5949 5949 5950 5950 5951 5951 5952 5951 5952 5953 5953 5954 5954 5955 5955 5955 5956 5957 5957 5957 5957 5957 5957
5926 5927 5928 5929 5930 5931 5932 5933 5934 5935 5936 5937 5938 5939 5940 5941 5943 5943 5944 5945 5946 5947 5947 5948 5949 5949 5949 5950 5950 5951 5951 5952 5953 5953 5953 5954 5955 5955 5955 5955 5955 5955
5922 5923 5924 5925 5926 5927 5929 5930 5931 5933 5934 5934 5935 5936 5937 5938 5939 5939 5940 5941 5942 5943 5944 5945 5946 5947 5947 5947 5948 5949 5949 5950 5950 5951 5951 5951 5952 5952 5952 5952 5953 5953
5918 5919 5920 5921 5922 5924 5925 5927 5928 5929 5930 5931 5931 5932 5933 5934 5934 5935 5936 5936 5937 5938 5939 5941 5943 5943 5943 5945 5946 5946 5947 5947 5947 5948 5948 5949 5949 5949 5950 5950 5950 5951
5913 5915 5916 5917 5919 5921 5922 5924 5925 5926 5926 5927 5928 5929 5930 5930 5931 5932 5932 5933 5934 5934 5935 5937 5939 5938 5940 5941 5942 5942 5943 5944 5944 5945 5945 5946 5946 5947 5947 5948 5948 5948
5910 5911 5913 5914 5916 5917 5919 5920 5922 5922 5923 5923 5925 5926 5926 5927 5927 5928 5928 5929 5930 5930 5932 5934 5934 5934 5935 5937 5938 5939 5940 5940 5940 5941 5942 5943 5943 5944 5945 5945 5946 5946
5906 5907 5909 5910 5912 5914 5915 5916 5917 5918 5918 5919 5920 5921 5922 5923 5923 5923 5925 5926 5926 5927 5930 5932 5930 5930 5931 5932 5933 5935 5936 5936 5937 5937 5938 5939 5939 5941 5942 5942 5942 5942
5902 5903 5905 5906 5907 5909 5911 5911 5912 5913 5914 5915 5916 5917 5917 5918 5918 5918 5921 5923 5922 5922 5926 5927 5925 5925 5927 5928 5929 5930 5931 5932 5933 5934 5935 5935 5935 5936 5937 5937 5936 5937
5898 5900 5902 5903 5904 5905 5906 5907 5908 5909 5910 5911 5912 5912 5912 5912 5912 5912 5914 5917 5917 5917 5920 5922 5920 5920 5922 5924 5925 5926 5926 5928 5929 5930 5931 5931 5931 5932 5933 5933 5933 5933
5895 5897 5898 5899 5900 5901 5901 5902 5904 5905 5906 5906 5907 5908 5908 5908 5908 5908 5909 5911 5911 5911 5914 5916 5915 5916 5918 5919 5920 5921 5922 5923 5925 5926 5926 5926 5928 5929 5930 5930 5930 5929
5892 5893 5894 5895 5896 5897 5897 5898 5899 5900 5901 5902 5903 5904 5904 5904 5905 5905 5905 5906 5906 5906 5908 5909 5910 5911 5913 5914 5916 5917 5918 5919 5920 5922 5922 5923 5925 5927 5927 5926 5925 5926
Wind_Speed
9 9 9 9 9 8 9 9 9 9 9 8 8 7 7 6 6 6 6 6 7 8 8 9 9 9 9 9 8 8 7 7 6 6 6 6 7 7 8 9 9 10
10 10 9 9 8 8 8 9 9 9 9 9 8 8 7 7 7 7 7 7 7 7 8 8 8 8 8 7 7 7 6 6 6 6 6 7 8 8 9 9 10 10
11 11 10 10 9 9 9 9 9 9 8 9 8 8 8 8 8 8 7 8 8 8 8 8 8 8 8 8 7 7 7 6 7 7 8 8 8 9 10 10 10 10
12 12 12 11 10 10 10 9 9 9 8 8 8 9 9 9 9 8 8 9 9 9 9 9 9 9 9 9 9 9 8 8 8 8 8 9 9 9 10 10 9 9
12 13 13 12 12 11 10 10 10 10 9 9 9 9 10 10 10 10 10 10 10 10 10 10 10 10 10 10 10 10 10 9 9 9 9 10 10 9 9 9 9 9
13 13 13 13 13 12 12 12 11 11 11 11 11 11 12 12 12 12 12 12 12 12 12 12 11 11 11 11 11 11 10 10 10 10 10 10 10 10 9 9 9 9
15 14 14 14 14 14 13 13 13 13 13 13 14 14 14 14 14 13 13 13 13 12 13 13 13 12 12 12 11 11 10 10 9 9 9 9 9 9 9 9 9 9
17 16 16 16 16 16 15 15 15 15 15 15 16 16 16 15 15 15 15 14 14 14 14 13 13 13 12 12 12 11 11 10 9 9 9 9 8 8 8 8 8 9
18 18 18 18 18 17 17 17 17 17 17 17 17 17 17 17 16 16 16 16 15 15 15 15 14 14 13 13 13 12 11 11 10 10 10 9 9 8 8 8 8 8
19 20 20 20 19 19 18 18 18 18 18 18 18 18 18 18 17 18 17 17 17 16 16 16 16 15 14 14 13 13 12 12 11 11 11 11 10 10 10 9 9 9
19 20 20 21 21 21 20 20 20 19 19 20 20 19 19 18 19 19 19 18 18 18 17 17 17 16 16 15 15 14 13 13 13 13 12 12 12 12 12 11 11 11
21 21 21 21 22 22 22 22 22 21 21 21 21 21 21 21 20 20 20 19 19 19 19 18 18 17 17 16 15 15 15 15 15 14 14 14 14 14 13 13 13 13
24 23 23 23 23 23 23 23 23 23 23 23 23 23 23 23 23 22 22 21 21 20 20 19 19 18 18 17 17 17 17 16 16 16 16 16 16 16 16 15 16 15
28 27 26 25 25 24 24 24 24 24 24 25 25 25 24 25 24 24 23 22 21 21 22 22 21 20 19 19 19 19 18 17 17 17 18 18 18 17 17 17 17 17
29 29 29 28 27 26 26 25 25 25 25 26 27 27 26 26 25 25 24 23 23 22 23 24 23 22 22 21 20 21 21 20 19 18 18 19 19 18 18 17 17 18
27 28 29 29 30 29 28 28 28 27 26 26 27 27 27 27 26 27 26 25 25 25 24 25 25 24 24 23 22 23 23 22 20 18 18 20 20 19 19 18 18 17
27 27 27 28 29 30 30 30 30 29 28 28 27 27 27 27 28 28 28 28 28 28 28 28 26 25 25 25 24 24 24 23 23 21 20 20 21 20 20 19 19 19
28 27 27 27 28 28 29 30 30 30 30 30 30 29 29 29 30 30 30 30 30 30 30 30 28 27 28 27 25 25 25 25 25 24 23 23 22 21 21 21 21 21
31 30 29 29 29 28 28 29 29 29 31 32 32 32 31 32 32 32 32 33 32 31 32 30 29 29 30 29 28 27 27 27 27 27 26 26 25 24 23 23 22 23
33 33 32 32 31 31 31 30 29 28 30 31 32 33 34 34 35 35 35 35 34 33 32 30 29 31 31 30 30 30 29 29 29 29 28 28 28 27 26 25 24 24
34 35 34 34 34 34 34 32 31 31 32 33 32 33 34 36 37 38 38 38 37 36 34 31 31 32 32 32 32 31 30 30 30 30 30 29 29 28 26 26 26 26
34 36 37 37 36 36 35 34 33 34 35 36 36 36 36 37 39 40 40 40 40 39 35 33 34 34 33 34 33 32 32 31 31 31 30 29 29 27 25 26 27 27
32 34 36 37 36 35 35 36 36 37 37 37 37 38 39 40 41 42 40 37 38 40 37 36 38 38 36 35 34 33 33 32 31 30 29 28 28 27 26 27 28 27
31 31 31 34 35 35 36 37 37 36 36 36 36 37 39 40 41 44 43 39 40 41 38 37 40 40 39 37 36 36 35 34 32 30 29 29 30 28 27 27 27 28
31 30 29 31 33 34 35 37 37 36 36 37 37 36 38 39 40 41 42 42 44 44 40 39 42 43 42 41 39 38 37 36 34 31 31 31 31 29 27 27 28 29
32 31 31 30 30 31 31 33 34 36 37 37 37 36 37 39 39 37 37 39 43 45 43 43 45 45 44 43 42 41 39 38 36 35 34 33 32 30 29 29 30 31
Wind_Direction
213 210 205 196 191 190 193 193 188 182 176 170 168 166 165 164 160 158 159 162 164 166 169 171 174 176 177 180 183 187 193 201 210 219 231 243 254 263 272 280 283 286
216 215 214 208 200 195 197 197 195 192 185 178 176 176 176 176 174 172 171 174 174 175 179 182 185 188 192 198 203 208 215 223 236 247 256 263 268 273 278 283 286 288
219 215 216 217 213 207 206 204 201 200 196 190 186 185 188 188 187 185 184 186 188 189 192 196 200 204 210 217 223 229 235 242 251 259 265 269 273 277 281 283 285 286
222 219 217 218 219 216 213 212 211 208 206 204 200 198 200 201 200 199 198 199 200 200 203 207 212 216 221 229 235 240 245 248 252 257 263 268 271 275 279 282 282 282
225 223 220 218 219 220 220 220 218 216 215 215 214 212 211 210 209 210 209 209 209 210 212 214 217 222 226 232 239 244 249 252 254 258 262 266 269 271 274 277 279 279
226 226 224 222 219 219 222 224 223 221 218 219 220 219 219 216 214 214 216 216 217 217 218 220 222 226 229 234 240 245 250 254 257 260 263 266 269 270 270 271 274 276
226 226 226 226 223 220 221 225 226 225 221 220 220 219 220 219 217 216 217 219 221 222 224 225 226 228 232 235 239 242 245 250 255 258 259 264 268 271 272 271 272 274
227 227 227 227 227 224 222 224 227 227 226 223 221 219 219 220 219 218 218 219 220 223 226 227 228 229 231 234 236 237 238 240 242 246 250 254 258 263 268 270 271 273
230 230 229 229 229 228 226 226 228 231 231 229 227 224 221 220 220 219 220 220 220 221 224 226 227 229 229 232 234 234 235 236 236 239 243 247 249 251 256 261 265 269
233 234 233 232 232 232 231 230 230 232 234 234 233 230 227 225 223 222 221 220 219 220 223 225 225 227 227 229 231 232 233 235 236 237 239 242 244 246 248 251 254 259
234 236 237 236 235 235 235 234 233 233 234 236 237 235 232 231 230 228 225 224 223 222 222 224 225 226 226 227 230 232 233 234 236 238 239 241 244 245 248 249 250 252
234 236 238 239 238 237 237 237 236 236 236 237 238 237 236 234 234 234 232 230 230 228 227 227 227 228 228 230 232 234 236 236 236 238 241 242 245 246 249 251 252 253
236 236 237 239 240 239 239 240 239 238 239 239 240 241 241 240 239 238 237 236 236 237 236 235 234 234 234 236 237 238 241 242 242 244 245 245 247 249 250 252 254 256
239 238 238 239 240 240 241 242 241 240 240 240 242 244 245 246 245 244 243 242 241 241 242 241 240 239 239 240 241 243 244 246 247 249 251 252 253 254 256 257 258 259
241 241 241 241 241 241 241 242 243 242 242 242 244 244 245 246 248 248 248 246 246 245 245 244 243 242 241 240 241 243 244 245 247 250 254 257 258 259 261 262 263 263
244 244 244 243 243 243 243 243 244 244 244 245 246 247 247 247 248 249 249 248 248 249 249 248 246 244 243 243 242 242 243 245 247 249 252 255 257 259 261 263 265 267
245 245 246 245 244 244 244 244 245 246 246 246 247 249 250 250 249 248 248 247 247 248 250 252 251 248 248 248 247 246 246 246 247 248 250 253 256 259 261 264 266 268
243 245 246 247 246 245 246 246 246 246 247 248 248 248 249 250 250 249 249 248 247 246 248 250 252 251 250 250 250 249 249 249 249 251 251 252 254 257 258 261 264 266
243 242 243 245 246 247 247 247 247 248 248 248 248 248 249 249 249 249 250 249 248 247 247 248 250 251 251 250 250 249 249 250 251 252 253 253 255 257 258 260 263 266
244 244 244 245 247 248 248 247 248 250 250 250 250 250 250 249 250 250 250 251 250 249 248 248 249 250 251 251 250 249 250 250 251 252 254 256 258 259 260 262 264 266
247 246 246 247 248 250 250 250 250 250 252 253 253 252 252 253 252 251 250 250 251 250 250 249 249 250 251 251 251 250 250 251 252 253 254 257 259 261 264 266 266 266
253 250 248 248 248 249 250 252 252 252 252 253 254 254 254 254 254 254 253 253 253 252 251 251 250 250 251 252 252 252 251 251 251 253 254 257 259 260 262 264 265 267
261 257 252 249 248 248 249 250 251 252 254 255 255 255 255 255 255 255 254 253 254 253 251 250 251 250 249 251 252 253 253 253 252 253 255 257 258 257 257 259 263 265
264 263 257 252 251 251 250 250 250 252 254 256 256 256 257 258 258 257 253 250 252 253 250 248 250 250 249 250 251 252 253 254 254 255 255 256 256 256 256 259 263 266
266 266 263 259 256 254 252 251 251 250 251 253 253 254 256 257 259 258 254 250 251 251 248 246 248 251 251 250 250 251 252 254 254 254 254 254 257 259 260 261 263 265
263 263 263 262 259 255 254 254 252 249 250 252 253 254 255 257 259 259 256 253 252 251 249 247 248 250 251 251 250 250 251 253 253 253 252 254 257 260 261 261 262 265